Time,TemperatureF,DewpointF,PressureIn,WindDirection,WindDirectionDegrees,WindSpeedMPH,WindSpeedGustMPH,Humidity,HourlyPrecipIn,Conditions,Clouds,dailyrainin,SoftwareType,DateUTC
2013-05-17 00:07:00,73.3,55.9,29.93,North,360,0.0,0.0,54,0.00,,BKN250,0.00,VWS V14.01,2013-05-17 04:07:00,
2013-05-17 00:09:00,73.2,55.8,29.93,North,360,0.0,0.0,54,0.00,,BKN250,0.00,VWS V14.01,2013-05-17 04:09:00,
2013-05-17 00:14:00,73.0,55.6,29.93,North,360,0.0,0.0,54,0.00,,BKN250,0.00,VWS V14.01,2013-05-17 04:14:00,
2013-05-17 00:19:00,73.0,55.6,29.93,North,360,0.0,0.0,54,0.00,,BKN250,0.00,VWS V14.01,2013-05-17 04:19:00,
2013-05-17 00:26:00,72.9,55.5,29.93,North,360,0.0,0.0,54,0.00,,BKN250,0.00,VWS V14.01,2013-05-17 04:26:00,
2013-05-17 00:34:00,72.8,55.4,29.94,North,360,0.0,0.0,54,0.00,,BKN250,0.00,VWS V14.01,2013-05-17 04:34:00,
2013-05-17 00:39:00,72.7,55.3,29.94,North,360,0.0,0.0,54,0.00,,BKN250,0.00,VWS V14.01,2013-05-17 04:39:00,
2013-05-17 00:44:00,72.5,55.7,29.94,North,360,0.0,0.0,55,0.00,,BKN250,0.00,VWS V14.01,2013-05-17 04:44:00,
2013-05-17 00:49:00,72.3,55.5,29.94,North,360,0.0,0.0,55,0.00,,BKN250,0.00,VWS V14.01,2013-05-17 04:49:00,
2013-05-17 00:59:00,72.0,55.2,29.94,North,360,0.0,0.0,55,0.00,,BKN180,0.00,VWS V14.01,2013-05-17 04:59:00,
2013-05-17 01:07:00,71.9,55.6,29.93,North,360,0.0,0.0,57,0.00,,BKN180,0.00,VWS V14.01,2013-05-17 05:07:00,
2013-05-17 01:14:00,71.4,55.2,29.93,North,360,0.0,0.0,57,0.00,,BKN180,0.00,VWS V14.01,2013-05-17 05:14:00,
2013-05-17 01:24:00,70.9,55.7,29.94,North,360,0.0,0.0,59,0.00,,BKN180,0.00,VWS V14.01,2013-05-17 05:24:00,
2013-05-17 01:29:00,71.0,55.3,29.94,North,360,0.0,0.0,58,0.00,,BKN180,0.00,VWS V14.01,2013-05-17 05:29:00,
2013-05-17 01:34:00,70.9,55.2,29.94,North,360,0.0,0.0,58,0.00,,BKN180,0.00,VWS V14.01,2013-05-17 05:34:00,
2013-05-17 01:39:00,70.7,55.0,29.94,North,360,0.0,0.0,58,0.00,,BKN180,0.00,VWS V14.01,2013-05-17 05:39:00,
2013-05-17 01:49:00,70.5,55.3,29.93,North,360,0.0,0.0,59,0.00,,BKN180,0.00,VWS V14.01,2013-05-17 05:49:00,
2013-05-17 01:54:00,70.4,55.2,29.93,North,360,0.0,0.0,59,0.00,,BKN180,0.00,VWS V14.01,2013-05-17 05:54:00,
2013-05-17 01:59:00,70.4,55.2,29.94,North,360,0.0,0.0,59,0.00,,BKN250,0.00,VWS V14.01,2013-05-17 05:59:00,
2013-05-17 02:07:00,70.1,55.0,29.93,North,360,0.0,0.0,59,0.00,,BKN250,0.00,VWS V14.01,2013-05-17 06:07:00,
2013-05-17 02:14:00,70.1,55.0,29.93,North,360,0.0,0.0,59,0.00,,BKN250,0.00,VWS V14.01,2013-05-17 06:14:00,
2013-05-17 02:19:00,70.0,55.4,29.93,North,360,0.0,0.0,60,0.00,,BKN250,0.00,VWS V14.01,2013-05-17 06:19:00,
2013-05-17 02:24:00,69.8,55.7,29.94,North,360,0.0,0.0,61,0.00,,BKN250,0.00,VWS V14.01,2013-05-17 06:24:00,
2013-05-17 02:29:00,69.7,55.6,29.94,North,360,0.0,0.0,61,0.00,,BKN250,0.00,VWS V14.01,2013-05-17 06:29:00,
2013-05-17 02:34:00,69.6,55.5,29.94,North,360,0.0,0.0,61,0.00,,BKN250,0.00,VWS V14.01,2013-05-17 06:34:00,
2013-05-17 02:39:00,69.4,55.8,29.94,North,360,0.0,0.0,62,0.00,,BKN250,0.00,VWS V14.01,2013-05-17 06:39:00,
2013-05-17 02:44:00,69.1,55.5,29.94,North,360,0.0,0.0,62,0.00,,BKN250,0.00,VWS V14.01,2013-05-17 06:44:00,
2013-05-17 02:49:00,68.8,56.1,29.94,North,360,0.0,0.0,64,0.00,,BKN250,0.00,VWS V14.01,2013-05-17 06:49:00,
2013-05-17 02:54:00,68.4,56.6,29.94,North,360,0.0,0.0,66,0.00,,BKN250,0.00,VWS V14.01,2013-05-17 06:54:00,
2013-05-17 03:07:00,67.6,56.8,29.94,North,360,0.0,0.0,68,0.00,,FEW250,0.00,VWS V14.01,2013-05-17 07:07:00,
2013-05-17 03:14:00,67.3,56.5,29.94,North,360,0.0,0.0,68,0.00,,FEW250,0.00,VWS V14.01,2013-05-17 07:14:00,
2013-05-17 03:24:00,67.3,56.5,29.95,North,360,0.0,0.0,68,0.00,,FEW250,0.00,VWS V14.01,2013-05-17 07:24:00,
2013-05-17 03:34:00,67.8,56.1,29.95,North,360,0.0,0.0,66,0.00,,FEW250,0.00,VWS V14.01,2013-05-17 07:34:00,
2013-05-17 03:39:00,67.8,56.1,29.96,North,360,0.0,0.0,66,0.00,,FEW250,0.00,VWS V14.01,2013-05-17 07:39:00,
2013-05-17 03:44:00,67.8,56.1,29.96,North,360,0.0,0.0,66,0.00,,FEW250,0.00,VWS V14.01,2013-05-17 07:44:00,
2013-05-17 03:49:00,67.8,55.6,29.96,North,360,0.0,0.0,65,0.00,,FEW250,0.00,VWS V14.01,2013-05-17 07:49:00,
2013-05-17 03:54:00,67.7,56.0,29.96,North,360,0.0,0.0,66,0.00,,FEW250,0.00,VWS V14.01,2013-05-17 07:54:00,
2013-05-17 04:07:00,67.3,56.5,29.96,North,360,0.0,0.0,68,0.00,,FEW250,0.00,VWS V14.01,2013-05-17 08:07:00,
2013-05-17 04:14:00,67.0,56.2,29.97,North,360,0.0,0.0,68,0.00,,FEW250,0.00,VWS V14.01,2013-05-17 08:14:00,
2013-05-17 04:19:00,66.4,56.0,29.97,North,360,0.0,0.0,69,0.00,,FEW250,0.00,VWS V14.01,2013-05-17 08:19:00,
2013-05-17 04:29:00,65.9,56.4,29.98,North,360,0.0,0.0,71,0.00,,FEW250,0.00,VWS V14.01,2013-05-17 08:29:00,
2013-05-17 04:34:00,65.9,56.0,29.98,North,360,0.0,0.0,70,0.00,,FEW250,0.00,VWS V14.01,2013-05-17 08:34:00,
2013-05-17 04:39:00,66.1,56.2,29.98,North,360,0.0,0.0,70,0.00,,FEW250,0.00,VWS V14.01,2013-05-17 08:39:00,
2013-05-17 04:44:00,66.1,56.6,29.98,North,360,0.0,0.0,71,0.00,,FEW250,0.00,VWS V14.01,2013-05-17 08:44:00,
2013-05-17 04:49:00,65.9,56.4,29.99,North,360,0.0,0.0,71,0.00,,FEW250,0.00,VWS V14.01,2013-05-17 08:49:00,
2013-05-17 04:54:00,65.6,56.5,29.99,North,360,0.0,0.0,72,0.00,,FEW250,0.00,VWS V14.01,2013-05-17 08:54:00,
2013-05-17 04:59:00,65.5,56.4,29.99,North,360,0.0,0.0,72,0.00,,CLR,0.00,VWS V14.01,2013-05-17 08:59:00,
2013-05-17 05:07:00,65.2,56.5,30.00,North,360,0.0,0.0,73,0.00,,CLR,0.00,VWS V14.01,2013-05-17 09:07:00,
2013-05-17 05:14:00,64.8,56.1,30.00,North,360,0.0,0.0,73,0.00,,CLR,0.00,VWS V14.01,2013-05-17 09:14:00,
2013-05-17 05:19:00,64.5,56.2,30.01,North,360,0.0,0.0,75,0.00,,CLR,0.00,VWS V14.01,2013-05-17 09:19:00,
2013-05-17 05:26:00,64.4,56.2,30.01,North,360,0.0,0.0,75,0.00,,CLR,0.00,VWS V14.01,2013-05-17 09:26:00,
2013-05-17 05:34:00,64.2,56.3,30.01,North,360,0.0,0.0,76,0.00,,CLR,0.00,VWS V14.01,2013-05-17 09:34:00,
2013-05-17 05:39:00,64.0,56.2,30.02,North,360,0.0,0.0,76,0.00,,CLR,0.00,VWS V14.01,2013-05-17 09:39:00,
2013-05-17 05:44:00,63.8,56.0,30.02,North,360,0.0,0.0,76,0.00,,CLR,0.00,VWS V14.01,2013-05-17 09:44:00,
2013-05-17 05:49:00,63.7,56.2,30.03,North,360,0.0,0.0,77,0.00,,CLR,0.00,VWS V14.01,2013-05-17 09:49:00,
2013-05-17 05:54:00,63.6,56.2,30.03,North,360,0.0,0.0,77,0.00,,CLR,0.00,VWS V14.01,2013-05-17 09:54:00,
2013-05-17 05:59:00,63.5,56.4,30.03,North,360,0.0,0.0,78,0.00,,CLR,0.00,VWS V14.01,2013-05-17 09:59:00,
2013-05-17 06:07:00,63.4,56.3,30.04,North,360,0.0,0.0,78,0.00,,CLR,0.00,VWS V14.01,2013-05-17 10:07:00,
2013-05-17 06:14:00,63.1,56.4,30.04,North,360,0.0,0.0,79,0.00,,CLR,0.00,VWS V14.01,2013-05-17 10:14:00,
2013-05-17 06:19:00,63.1,56.4,30.05,North,360,0.0,0.0,79,0.00,,CLR,0.00,VWS V14.01,2013-05-17 10:19:00,
2013-05-17 06:29:00,63.2,56.5,30.05,North,360,0.0,0.0,79,0.00,,CLR,0.00,VWS V14.01,2013-05-17 10:29:00,
2013-05-17 06:34:00,63.1,56.8,30.05,North,360,0.0,0.0,80,0.00,,CLR,0.00,VWS V14.01,2013-05-17 10:34:00,
2013-05-17 06:39:00,63.2,56.9,30.06,North,360,0.0,0.0,80,0.00,,CLR,0.00,VWS V14.01,2013-05-17 10:39:00,
2013-05-17 06:44:00,63.8,56.3,30.06,North,360,0.0,0.0,77,0.00,,CLR,0.00,VWS V14.01,2013-05-17 10:44:00,
2013-05-17 06:49:00,63.9,56.8,30.06,North,360,0.0,0.0,78,0.00,,CLR,0.00,VWS V14.01,2013-05-17 10:49:00,
2013-05-17 06:54:00,64.4,57.3,30.07,North,360,0.0,0.0,78,0.00,,CLR,0.00,VWS V14.01,2013-05-17 10:54:00,
2013-05-17 06:59:00,65.0,56.7,30.07,North,360,0.0,0.0,75,0.00,,SCT250,0.00,VWS V14.01,2013-05-17 10:59:00,
2013-05-17 07:07:00,65.2,56.9,30.07,North,360,0.0,0.0,75,0.00,,SCT250,0.00,VWS V14.01,2013-05-17 11:07:00,
2013-05-17 07:14:00,65.3,57.0,30.08,North,360,0.0,0.0,75,0.00,,SCT250,0.00,VWS V14.01,2013-05-17 11:14:00,
2013-05-17 07:24:00,65.7,57.4,30.08,North,360,0.0,0.0,75,0.00,,SCT250,0.00,VWS V14.01,2013-05-17 11:24:00,
2013-05-17 07:29:00,65.7,57.8,30.08,North,360,0.0,0.0,76,0.00,,SCT250,0.00,VWS V14.01,2013-05-17 11:29:00,
2013-05-17 07:34:00,66.0,58.1,30.08,North,360,0.0,0.0,76,0.00,,SCT250,0.00,VWS V14.01,2013-05-17 11:34:00,
2013-05-17 07:39:00,66.4,58.1,30.08,North,360,0.0,0.0,75,0.00,,SCT250,0.00,VWS V14.01,2013-05-17 11:39:00,
2013-05-17 07:44:00,66.9,57.8,30.08,North,360,0.0,0.0,72,0.00,,SCT250,0.00,VWS V14.01,2013-05-17 11:44:00,
2013-05-17 07:49:00,67.2,58.0,30.09,North,360,0.0,0.0,72,0.00,,SCT250,0.00,VWS V14.01,2013-05-17 11:49:00,
2013-05-17 07:54:00,67.3,57.7,30.09,North,360,0.0,0.0,71,0.00,,SCT250,0.00,VWS V14.01,2013-05-17 11:54:00,
2013-05-17 07:59:00,67.5,57.9,30.09,North,360,0.0,0.0,71,0.00,,SCT250,0.00,VWS V14.01,2013-05-17 11:59:00,
2013-05-17 08:07:00,67.2,58.8,30.09,North,360,0.0,0.0,75,0.00,,SCT250,0.00,VWS V14.01,2013-05-17 12:07:00,
2013-05-17 08:14:00,67.4,59.0,30.09,North,360,0.0,0.0,75,0.00,,SCT250,0.00,VWS V14.01,2013-05-17 12:14:00,
2013-05-17 08:19:00,67.6,58.4,30.09,North,360,0.0,0.0,72,0.00,,SCT250,0.00,VWS V14.01,2013-05-17 12:19:00,
2013-05-17 08:24:00,68.3,57.0,30.09,North,360,0.0,0.0,67,0.00,,SCT250,0.00,VWS V14.01,2013-05-17 12:24:00,
2013-05-17 08:29:00,69.2,55.1,30.09,North,360,0.0,0.0,61,0.00,,SCT250,0.00,VWS V14.01,2013-05-17 12:29:00,
2013-05-17 08:34:00,69.5,54.9,30.09,North,360,0.0,0.0,60,0.00,,SCT250,0.00,VWS V14.01,2013-05-17 12:34:00,
2013-05-17 08:39:00,69.9,55.3,30.10,North,360,0.0,0.0,60,0.00,,SCT250,0.00,VWS V14.01,2013-05-17 12:39:00,
2013-05-17 08:44:00,70.3,55.7,30.10,North,360,0.0,0.0,60,0.00,,SCT250,0.00,VWS V14.01,2013-05-17 12:44:00,
2013-05-17 08:54:00,70.5,53.8,30.10,North,360,0.0,0.0,55,0.00,,SCT250,0.00,VWS V14.01,2013-05-17 12:54:00,
2013-05-17 08:59:00,70.7,51.3,30.10,North,360,0.0,0.0,50,0.00,,FEW130,0.00,VWS V14.01,2013-05-17 12:59:00,
2013-05-17 09:07:00,70.8,50.8,30.10,North,360,0.0,0.0,49,0.00,,FEW130,0.00,VWS V14.01,2013-05-17 13:07:00,
2013-05-17 09:14:00,71.1,52.8,30.10,North,360,0.0,0.0,52,0.00,,FEW130,0.00,VWS V14.01,2013-05-17 13:14:00,
2013-05-17 09:19:00,71.2,51.2,30.10,North,360,0.0,0.0,49,0.00,,FEW130,0.00,VWS V14.01,2013-05-17 13:19:00,
2013-05-17 09:24:00,71.2,53.4,30.10,North,360,0.0,0.0,53,0.00,,FEW130,0.00,VWS V14.01,2013-05-17 13:24:00,
2013-05-17 09:34:00,71.5,51.4,30.10,North,360,0.0,0.0,49,0.00,,FEW130,0.00,VWS V14.01,2013-05-17 13:34:00,
2013-05-17 09:39:00,71.9,50.6,30.10,North,360,0.0,0.0,47,0.00,,FEW130,0.00,VWS V14.01,2013-05-17 13:39:00,
2013-05-17 09:49:00,72.5,49.3,30.10,North,360,0.0,0.0,44,0.00,,FEW130,0.00,VWS V14.01,2013-05-17 13:49:00,
2013-05-17 09:54:00,72.8,46.8,30.10,North,360,0.0,0.0,40,0.00,,FEW130,0.00,VWS V14.01,2013-05-17 13:54:00,
2013-05-17 09:59:00,72.9,49.0,30.11,North,360,0.0,0.0,43,0.00,,SCT250,0.00,VWS V14.01,2013-05-17 13:59:00,
2013-05-17 10:07:00,72.8,46.8,30.11,North,360,0.0,0.0,40,0.00,,SCT250,0.00,VWS V14.01,2013-05-17 14:07:00,
2013-05-17 10:14:00,73.1,47.8,30.11,North,360,0.0,0.0,41,0.00,,SCT250,0.00,VWS V14.01,2013-05-17 14:14:00,
2013-05-17 10:19:00,73.2,47.9,30.11,North,360,0.0,0.0,41,0.00,,SCT250,0.00,VWS V14.01,2013-05-17 14:19:00,
2013-05-17 10:26:00,73.4,46.6,30.11,North,360,0.0,0.0,39,0.00,,SCT250,0.00,VWS V14.01,2013-05-17 14:26:00,
2013-05-17 10:34:00,73.8,48.4,30.11,North,360,0.0,0.0,41,0.00,,SCT250,0.00,VWS V14.01,2013-05-17 14:34:00,
2013-05-17 10:44:00,74.6,47.7,30.11,North,360,0.0,0.0,39,0.00,,SCT250,0.00,VWS V14.01,2013-05-17 14:44:00,
2013-05-17 10:49:00,74.4,47.5,30.11,North,360,0.0,0.0,39,0.00,,SCT250,0.00,VWS V14.01,2013-05-17 14:49:00,
2013-05-17 10:54:00,74.7,47.0,30.11,North,360,0.0,0.0,37,0.00,,SCT250,0.00,VWS V14.01,2013-05-17 14:54:00,
2013-05-17 10:59:00,74.8,47.1,30.11,North,360,0.0,0.0,37,0.00,,SCT250,0.00,VWS V14.01,2013-05-17 14:59:00,
2013-05-17 11:07:00,74.7,47.0,30.11,North,360,0.0,0.0,37,0.00,,SCT250,0.00,VWS V14.01,2013-05-17 15:07:00,
2013-05-17 11:14:00,75.4,47.7,30.11,North,360,0.0,0.0,37,0.00,,SCT250,0.00,VWS V14.01,2013-05-17 15:14:00,
2013-05-17 11:19:00,75.8,48.0,30.11,North,360,0.0,0.0,37,0.00,,SCT250,0.00,VWS V14.01,2013-05-17 15:19:00,
2013-05-17 11:24:00,76.0,46.7,30.11,North,360,0.0,0.0,35,0.00,,SCT250,0.00,VWS V14.01,2013-05-17 15:24:00,
2013-05-17 11:29:00,75.9,46.6,30.11,North,360,0.0,0.0,35,0.00,,SCT250,0.00,VWS V14.01,2013-05-17 15:29:00,
2013-05-17 11:39:00,76.0,47.4,30.11,North,360,0.0,0.0,36,0.00,,SCT250,0.00,VWS V14.01,2013-05-17 15:39:00,
2013-05-17 11:44:00,76.0,47.4,30.11,North,360,0.0,0.0,36,0.00,,SCT250,0.00,VWS V14.01,2013-05-17 15:44:00,
2013-05-17 11:49:00,76.4,48.6,30.11,North,360,0.0,0.0,37,0.00,,SCT250,0.00,VWS V14.01,2013-05-17 15:49:00,
2013-05-17 11:54:00,76.5,46.3,30.11,North,360,0.0,0.0,34,0.00,,SCT250,0.00,VWS V14.01,2013-05-17 15:54:00,
2013-05-17 12:07:00,77.0,47.5,30.10,North,360,0.0,0.0,35,0.00,,SCT250,0.00,VWS V14.01,2013-05-17 16:07:00,
2013-05-17 12:14:00,77.6,46.4,30.10,North,360,0.0,0.0,33,0.00,,SCT250,0.00,VWS V14.01,2013-05-17 16:14:00,
2013-05-17 12:19:00,77.6,44.7,30.10,North,360,0.0,0.0,31,0.00,,SCT250,0.00,VWS V14.01,2013-05-17 16:19:00,
2013-05-17 12:24:00,77.6,45.6,30.10,North,360,0.0,0.0,32,0.00,,SCT250,0.00,VWS V14.01,2013-05-17 16:24:00,
2013-05-17 12:29:00,77.4,44.5,30.10,North,360,0.0,0.0,31,0.00,,SCT250,0.00,VWS V14.01,2013-05-17 16:29:00,
2013-05-17 12:34:00,77.6,43.8,30.10,North,360,0.0,0.0,30,0.00,,SCT250,0.00,VWS V14.01,2013-05-17 16:34:00,
2013-05-17 12:39:00,77.9,44.0,30.10,North,360,0.0,0.0,30,0.00,,SCT250,0.00,VWS V14.01,2013-05-17 16:39:00,
2013-05-17 12:44:00,78.1,44.2,30.10,North,360,0.0,0.0,30,0.00,,SCT250,0.00,VWS V14.01,2013-05-17 16:44:00,
2013-05-17 12:49:00,78.3,45.3,30.10,North,360,0.0,0.0,31,0.00,,SCT250,0.00,VWS V14.01,2013-05-17 16:49:00,
2013-05-17 12:59:00,78.1,45.1,30.10,North,360,0.0,0.0,31,0.00,,SCT250,0.00,VWS V14.01,2013-05-17 16:59:00,
2013-05-17 13:07:00,77.8,43.0,30.09,North,360,0.0,0.0,29,0.00,,SCT250,0.00,VWS V14.01,2013-05-17 17:07:00,
2013-05-17 13:14:00,78.3,45.3,30.09,North,360,0.0,0.0,31,0.00,,SCT250,0.00,VWS V14.01,2013-05-17 17:14:00,
2013-05-17 13:19:00,78.7,43.8,30.09,North,360,0.0,0.0,29,0.00,,SCT250,0.00,VWS V14.01,2013-05-17 17:19:00,
2013-05-17 13:29:00,79.1,45.1,30.09,North,360,0.0,0.0,30,0.00,,SCT250,0.00,VWS V14.01,2013-05-17 17:29:00,
2013-05-17 13:34:00,79.2,44.2,30.09,North,360,0.0,0.0,29,0.00,,SCT250,0.00,VWS V14.01,2013-05-17 17:34:00,
2013-05-17 13:39:00,79.3,46.2,30.09,North,360,0.0,0.0,31,0.00,,SCT250,0.00,VWS V14.01,2013-05-17 17:39:00,
2013-05-17 13:44:00,79.2,47.0,30.09,North,360,0.0,0.0,32,0.00,,SCT250,0.00,VWS V14.01,2013-05-17 17:44:00,
2013-05-17 13:54:00,79.1,44.1,30.09,North,360,0.0,0.0,29,0.00,,SCT250,0.00,VWS V14.01,2013-05-17 17:54:00,
2013-05-17 13:59:00,79.4,45.3,30.09,North,360,0.0,0.0,30,0.00,,FEW250,0.00,VWS V14.01,2013-05-17 17:59:00,
2013-05-17 14:07:00,79.6,45.5,30.08,North,360,0.0,0.0,30,0.00,,FEW250,0.00,VWS V14.01,2013-05-17 18:07:00,
2013-05-17 14:14:00,80.0,46.8,30.08,North,360,0.0,0.0,31,0.00,,FEW250,0.00,VWS V14.01,2013-05-17 18:14:00,
2013-05-17 14:19:00,80.4,48.0,30.08,North,360,0.0,0.0,32,0.00,,FEW250,0.00,VWS V14.01,2013-05-17 18:19:00,
2013-05-17 14:24:00,80.3,47.0,30.08,North,360,0.0,0.0,31,0.00,,FEW250,0.00,VWS V14.01,2013-05-17 18:24:00,
2013-05-17 14:29:00,79.2,47.0,30.08,North,360,0.0,0.0,32,0.00,,FEW250,0.00,VWS V14.01,2013-05-17 18:29:00,
2013-05-17 14:34:00,79.3,47.0,30.08,North,360,0.0,0.0,32,0.00,,FEW250,0.00,VWS V14.01,2013-05-17 18:34:00,
2013-05-17 14:39:00,78.9,46.7,30.08,North,360,0.0,0.0,32,0.00,,FEW250,0.00,VWS V14.01,2013-05-17 18:39:00,
2013-05-17 14:44:00,79.4,47.1,30.08,North,360,0.0,0.0,32,0.00,,FEW250,0.00,VWS V14.01,2013-05-17 18:44:00,
2013-05-17 14:49:00,80.4,48.9,30.08,North,360,0.0,0.0,33,0.00,,FEW250,0.00,VWS V14.01,2013-05-17 18:49:00,
2013-05-17 14:54:00,80.1,48.6,30.08,North,360,0.0,0.0,33,0.00,,FEW250,0.00,VWS V14.01,2013-05-17 18:54:00,
2013-05-17 14:59:00,80.5,49.0,30.08,North,360,0.0,0.0,33,0.00,,BKN250,0.00,VWS V14.01,2013-05-17 18:59:00,
2013-05-17 15:07:00,80.5,48.1,30.08,North,360,0.0,0.0,32,0.00,,BKN250,0.00,VWS V14.01,2013-05-17 19:07:00,
2013-05-17 15:14:00,81.0,49.4,30.08,North,360,0.0,0.0,33,0.00,,BKN250,0.00,VWS V14.01,2013-05-17 19:14:00,
2013-05-17 15:19:00,81.4,49.7,30.07,North,360,0.0,0.0,33,0.00,,BKN250,0.00,VWS V14.01,2013-05-17 19:19:00,
2013-05-17 15:25:00,81.1,48.6,30.07,North,360,0.0,0.0,32,0.00,,BKN250,0.00,VWS V14.01,2013-05-17 19:25:00,
2013-05-17 15:34:00,80.8,48.3,30.07,North,360,0.0,0.0,32,0.00,,BKN250,0.00,VWS V14.01,2013-05-17 19:34:00,
2013-05-17 15:39:00,80.9,48.4,30.07,North,360,0.0,0.0,32,0.00,,BKN250,0.00,VWS V14.01,2013-05-17 19:39:00,
2013-05-17 15:44:00,81.4,48.9,30.07,North,360,0.0,0.0,32,0.00,,BKN250,0.00,VWS V14.01,2013-05-17 19:44:00,
2013-05-17 15:49:00,81.5,48.1,30.07,North,360,0.0,0.0,31,0.00,,BKN250,0.00,VWS V14.01,2013-05-17 19:49:00,
2013-05-17 15:54:00,80.7,47.4,30.07,North,360,0.0,0.0,31,0.00,,BKN250,0.00,VWS V14.01,2013-05-17 19:54:00,
2013-05-17 15:59:00,81.4,48.0,30.06,North,360,0.0,0.0,31,0.00,,BKN250,0.00,VWS V14.01,2013-05-17 19:59:00,
2013-05-17 16:07:00,81.4,48.9,30.06,North,360,0.0,0.0,32,0.00,,BKN250,0.00,VWS V14.01,2013-05-17 20:07:00,
2013-05-17 16:14:00,81.1,49.5,30.06,North,360,0.0,0.0,33,0.00,,BKN250,0.00,VWS V14.01,2013-05-17 20:14:00,
2013-05-17 16:19:00,81.0,50.2,30.06,North,360,0.0,0.0,34,0.00,,BKN250,0.00,VWS V14.01,2013-05-17 20:19:00,
2013-05-17 16:24:00,80.9,50.2,30.06,North,360,0.0,0.0,34,0.00,,BKN250,0.00,VWS V14.01,2013-05-17 20:24:00,
2013-05-17 16:34:00,80.9,51.0,30.06,North,360,0.0,0.0,35,0.00,,BKN250,0.00,VWS V14.01,2013-05-17 20:34:00,
2013-05-17 16:44:00,81.2,52.0,30.06,North,360,0.0,0.0,36,0.00,,BKN250,0.00,VWS V14.01,2013-05-17 20:44:00,
2013-05-17 16:49:00,81.0,51.9,30.06,North,360,0.0,0.0,36,0.00,,BKN250,0.00,VWS V14.01,2013-05-17 20:49:00,
2013-05-17 16:54:00,81.4,52.2,30.06,North,360,0.0,0.0,36,0.00,,BKN250,0.00,VWS V14.01,2013-05-17 20:54:00,
2013-05-17 16:59:00,81.7,53.3,30.06,North,360,0.0,0.0,37,0.00,,BKN250,0.00,VWS V14.01,2013-05-17 20:59:00,
2013-05-17 17:07:00,81.7,54.0,30.06,North,360,0.0,0.0,39,0.00,,BKN250,0.00,VWS V14.01,2013-05-17 21:07:00,
2013-05-17 17:14:00,81.5,53.1,30.06,North,360,0.0,0.0,37,0.00,,BKN250,0.00,VWS V14.01,2013-05-17 21:14:00,
2013-05-17 17:19:00,81.3,53.7,30.06,North,360,0.0,0.0,39,0.00,,BKN250,0.00,VWS V14.01,2013-05-17 21:19:00,
2013-05-17 17:24:00,81.3,53.7,30.06,North,360,0.0,0.0,39,0.00,,BKN250,0.00,VWS V14.01,2013-05-17 21:24:00,
2013-05-17 17:29:00,81.2,55.0,30.06,North,360,0.0,0.0,41,0.00,,BKN250,0.00,VWS V14.01,2013-05-17 21:29:00,
2013-05-17 17:34:00,81.2,53.6,30.06,North,360,0.0,0.0,39,0.00,,BKN250,0.00,VWS V14.01,2013-05-17 21:34:00,
2013-05-17 17:39:00,81.4,53.8,30.06,North,360,0.0,0.0,39,0.00,,BKN250,0.00,VWS V14.01,2013-05-17 21:39:00,
2013-05-17 17:44:00,81.3,52.1,30.06,North,360,0.0,0.0,36,0.00,,BKN250,0.00,VWS V14.01,2013-05-17 21:44:00,
2013-05-17 17:49:00,81.3,49.7,30.06,North,360,0.0,0.0,33,0.00,,BKN250,0.00,VWS V14.01,2013-05-17 21:49:00,
2013-05-17 17:54:00,81.1,49.5,30.06,North,360,0.0,0.0,33,0.00,,BKN250,0.00,VWS V14.01,2013-05-17 21:54:00,
2013-05-17 17:59:00,80.6,51.5,30.06,North,360,0.0,0.0,36,0.00,,BKN250,0.00,VWS V14.01,2013-05-17 21:59:00,
2013-05-17 18:07:00,80.0,51.8,30.06,North,360,0.0,0.0,37,0.00,,BKN250,0.00,VWS V14.01,2013-05-17 22:07:00,
2013-05-17 18:14:00,79.6,51.4,30.06,North,360,0.0,0.0,37,0.00,,BKN250,0.00,VWS V14.01,2013-05-17 22:14:00,
2013-05-17 18:19:00,79.3,52.6,30.06,North,360,0.0,0.0,40,0.00,,BKN250,0.00,VWS V14.01,2013-05-17 22:19:00,
2013-05-17 18:26:00,79.1,52.4,30.06,North,360,0.0,0.0,40,0.00,,BKN250,0.00,VWS V14.01,2013-05-17 22:26:00,
2013-05-17 18:34:00,78.5,51.2,30.06,North,360,0.0,0.0,39,0.00,,BKN250,0.00,VWS V14.01,2013-05-17 22:34:00,
2013-05-17 18:39:00,78.5,51.9,30.06,North,360,0.0,0.0,40,0.00,,BKN250,0.00,VWS V14.01,2013-05-17 22:39:00,
2013-05-17 18:44:00,78.3,51.7,30.06,North,360,0.0,0.0,40,0.00,,BKN250,0.00,VWS V14.01,2013-05-17 22:44:00,
2013-05-17 18:49:00,78.1,52.3,30.06,North,360,0.0,0.0,41,0.00,,BKN250,0.00,VWS V14.01,2013-05-17 22:49:00,
2013-05-17 18:54:00,77.9,52.1,30.06,North,360,0.0,0.0,41,0.00,,BKN250,0.00,VWS V14.01,2013-05-17 22:54:00,
2013-05-17 18:59:00,77.9,51.4,30.06,North,360,0.0,0.0,40,0.00,,BKN250,0.00,VWS V14.01,2013-05-17 22:59:00,
2013-05-17 19:07:00,77.7,52.6,30.07,North,360,0.0,0.0,42,0.00,,BKN250,0.00,VWS V14.01,2013-05-17 23:07:00,
2013-05-17 19:14:00,77.4,53.0,30.07,North,360,0.0,0.0,43,0.00,,BKN250,0.00,VWS V14.01,2013-05-17 23:14:00,
2013-05-17 19:19:00,77.1,52.1,30.07,North,360,0.0,0.0,42,0.00,,BKN250,0.00,VWS V14.01,2013-05-17 23:19:00,
2013-05-17 19:24:00,76.8,51.8,30.07,North,360,0.0,0.0,42,0.00,,BKN250,0.00,VWS V14.01,2013-05-17 23:24:00,
2013-05-17 19:29:00,76.5,50.8,30.07,North,360,0.0,0.0,41,0.00,,BKN250,0.00,VWS V14.01,2013-05-17 23:29:00,
2013-05-17 19:34:00,76.3,51.3,30.08,North,360,0.0,0.0,42,0.00,,BKN250,0.00,VWS V14.01,2013-05-17 23:34:00,
2013-05-17 19:44:00,75.8,50.2,30.08,North,360,0.0,0.0,41,0.00,,BKN250,0.00,VWS V14.01,2013-05-17 23:44:00,
2013-05-17 19:49:00,75.6,49.3,30.08,North,360,0.0,0.0,40,0.00,,BKN250,0.00,VWS V14.01,2013-05-17 23:49:00,
2013-05-17 19:59:00,75.1,48.9,30.09,North,360,0.0,0.0,40,0.00,,BKN250,0.00,VWS V14.01,2013-05-17 23:59:00,
2013-05-17 20:07:00,75.0,48.8,30.09,North,360,0.0,0.0,40,0.00,,BKN250,0.00,VWS V14.01,2013-05-18 00:07:00,
2013-05-17 20:14:00,74.6,47.7,30.09,North,360,0.0,0.0,39,0.00,,BKN250,0.00,VWS V14.01,2013-05-18 00:14:00,
2013-05-17 20:19:00,74.3,49.6,30.10,North,360,0.0,0.0,42,0.00,,BKN250,0.00,VWS V14.01,2013-05-18 00:19:00,
2013-05-17 20:24:00,74.1,48.0,30.10,North,360,0.0,0.0,40,0.00,,BKN250,0.00,VWS V14.01,2013-05-18 00:24:00,
2013-05-17 20:29:00,73.9,47.8,30.10,North,360,0.0,0.0,40,0.00,,BKN250,0.00,VWS V14.01,2013-05-18 00:29:00,
2013-05-17 20:34:00,73.8,47.7,30.10,North,360,0.0,0.0,40,0.00,,BKN250,0.00,VWS V14.01,2013-05-18 00:34:00,
2013-05-17 20:39:00,73.6,48.2,30.10,North,360,0.0,0.0,41,0.00,,BKN250,0.00,VWS V14.01,2013-05-18 00:39:00,
2013-05-17 20:49:00,73.1,48.5,30.10,North,360,0.0,0.0,42,0.00,,BKN250,0.00,VWS V14.01,2013-05-18 00:49:00,
2013-05-17 20:54:00,72.9,49.0,30.10,North,360,0.0,0.0,43,0.00,,BKN250,0.00,VWS V14.01,2013-05-18 00:54:00,
2013-05-17 20:59:00,72.7,48.8,30.10,North,360,0.0,0.0,43,0.00,,OVC250,0.00,VWS V14.01,2013-05-18 00:59:00,
2013-05-17 21:07:00,72.5,48.6,30.11,North,360,0.0,0.0,43,0.00,,OVC250,0.00,VWS V14.01,2013-05-18 01:07:00,
2013-05-17 21:14:00,72.1,49.5,30.11,North,360,0.0,0.0,45,0.00,,OVC250,0.00,VWS V14.01,2013-05-18 01:14:00,
2013-05-17 21:19:00,71.9,49.4,30.11,North,360,0.0,0.0,45,0.00,,OVC250,0.00,VWS V14.01,2013-05-18 01:19:00,
2013-05-17 21:24:00,71.8,49.3,30.11,North,360,0.0,0.0,45,0.00,,OVC250,0.00,VWS V14.01,2013-05-18 01:24:00,
2013-05-17 21:29:00,71.7,48.5,30.11,North,360,0.0,0.0,44,0.00,,OVC250,0.00,VWS V14.01,2013-05-18 01:29:00,
2013-05-17 21:34:00,71.7,49.2,30.12,North,360,0.0,0.0,45,0.00,,OVC250,0.00,VWS V14.01,2013-05-18 01:34:00,
2013-05-17 21:44:00,71.1,49.3,30.12,North,360,0.0,0.0,46,0.00,,OVC250,0.00,VWS V14.01,2013-05-18 01:44:00,
2013-05-17 21:49:00,71.0,50.4,30.12,North,360,0.0,0.0,48,0.00,,OVC250,0.00,VWS V14.01,2013-05-18 01:49:00,
2013-05-17 21:59:00,70.7,49.5,30.13,North,360,0.0,0.0,47,0.00,,BKN250,0.00,VWS V14.01,2013-05-18 01:59:00,
2013-05-17 22:07:00,70.6,49.4,30.13,North,360,0.0,0.0,47,0.00,,BKN250,0.00,VWS V14.01,2013-05-18 02:07:00,
2013-05-17 22:14:00,70.3,49.7,30.13,North,360,0.0,0.0,48,0.00,,BKN250,0.00,VWS V14.01,2013-05-18 02:14:00,
2013-05-17 22:19:00,70.4,48.6,30.13,North,360,0.0,0.0,46,0.00,,BKN250,0.00,VWS V14.01,2013-05-18 02:19:00,
2013-05-17 22:26:00,70.3,49.1,30.14,North,360,0.0,0.0,47,0.00,,BKN250,0.00,VWS V14.01,2013-05-18 02:26:00,
2013-05-17 22:34:00,70.3,48.5,30.14,North,360,0.0,0.0,46,0.00,,BKN250,0.00,VWS V14.01,2013-05-18 02:34:00,
2013-05-17 22:44:00,70.5,48.7,30.14,North,360,0.0,0.0,46,0.00,,BKN250,0.00,VWS V14.01,2013-05-18 02:44:00,
2013-05-17 22:49:00,70.5,48.1,30.13,North,360,0.0,0.0,45,0.00,,BKN250,0.00,VWS V14.01,2013-05-18 02:49:00,
2013-05-17 22:54:00,70.6,48.8,30.13,North,360,0.0,0.0,46,0.00,,BKN250,0.00,VWS V14.01,2013-05-18 02:54:00,
2013-05-17 22:59:00,70.4,49.8,30.13,North,360,0.0,0.0,48,0.00,,BKN250,0.00,VWS V14.01,2013-05-18 02:59:00,
2013-05-17 23:07:00,70.3,49.7,30.14,North,360,0.0,0.0,48,0.00,,BKN250,0.00,VWS V14.01,2013-05-18 03:07:00,
2013-05-17 23:14:00,70.2,49.0,30.14,North,360,0.0,0.0,47,0.00,,BKN250,0.00,VWS V14.01,2013-05-18 03:14:00,
2013-05-17 23:19:00,70.0,48.9,30.14,North,360,0.0,0.0,47,0.00,,BKN250,0.00,VWS V14.01,2013-05-18 03:19:00,
2013-05-17 23:24:00,69.9,49.4,30.14,North,360,0.0,0.0,48,0.00,,BKN250,0.00,VWS V14.01,2013-05-18 03:24:00,
2013-05-17 23:34:00,69.5,50.7,30.15,North,360,0.0,0.0,51,0.00,,BKN250,0.00,VWS V14.01,2013-05-18 03:34:00,
2013-05-17 23:39:00,69.2,50.5,30.15,North,360,0.0,0.0,51,0.00,,BKN250,0.00,VWS V14.01,2013-05-18 03:39:00,
2013-05-17 23:44:00,69.1,50.9,30.15,North,360,0.0,0.0,52,0.00,,BKN250,0.00,VWS V14.01,2013-05-18 03:44:00,
2013-05-17 23:49:00,68.9,48.5,30.15,North,360,0.0,0.0,48,0.00,,BKN250,0.00,VWS V14.01,2013-05-18 03:49:00,
2013-05-17 23:54:00,68.8,49.0,30.15,North,360,0.0,0.0,49,0.00,,BKN250,0.00,VWS V14.01,2013-05-18 03:54:00,
2013-05-17 23:59:00,68.6,48.8,30.16,North,360,0.0,0.0,49,0.00,,OVC250,0.00,VWS V14.01,2013-05-18 03:59:00,